Location: Binningen
(47.7924°N, 8.7261°E)
Time: 09:19:31
(UTC+00:00)

ERS-1 Rocket - Pass Details

Date: 17 May 2021
Orbit: 754 x 757 km, 98.4° (Epoch: 15 June)

Event Time Altitude Azimuth Distance (km) Brightness Sun altitude
Exits shadow 19:49:16 - 119° (ESE) 2,379 4.9 -7.6°
Reaches altitude 10° 19:49:34 10° 117° (ESE) 2,280 4.8 -7.7°
Maximum altitude 19:53:39 26° 62° (ENE) 1,471 4.3 -8.2°
Drops below altitude 10° 19:57:45 10° 8° (N) 2,295 6.0 -8.7°
Sets 20:00:22 0° 356° (N) 3,225 7.0 -9.0°
